This is the latest recevied weather packets stored in our database for station/object KB1JLI. If no packets are shown the sender has not sent any weather packets the latest 10 day(s).
| Time | Temp. | Humidity | Pressure | Rain* | Wind** | Luminosity | Snow |
|---|---|---|---|---|---|---|---|
| 1777306059 | 17.78° C | 41% | 1025.3 hPa | 0 mm | - | 692 W/m² | - |
| 1777305757 | 17.78° C | 40% | 1025.6 hPa | 0 mm | - | 690 W/m² | - |
| 1777305452 | 17.78° C | 42% | 1025.5 hPa | 0 mm | - | 687 W/m² | - |
| 1777305152 | 16.67° C | 42% | 1025.6 hPa | 0 mm | - | 684 W/m² | - |
| 1777304847 | 17.22° C | 42% | 1025.5 hPa | 0 mm | - | 679 W/m² | - |
| 1777304545 | 17.78° C | 40% | 1025.7 hPa | 0 mm | - | 675 W/m² | - |
| 1777304242 | 17.22° C | 40% | 1025.7 hPa | 0 mm | - | 672 W/m² | - |
| 1777303939 | 17.22° C | 41% | 1025.7 hPa | 0 mm | - | 665 W/m² | - |
| 1777303636 | 17.78° C | 40% | 1025.8 hPa | 0 mm | - | 661 W/m² | - |
| 1777303334 | 17.22° C | 41% | 1025.6 hPa | 0 mm | - | 655 W/m² | - |
| 1777303030 | 17.78° C | 41% | 1025.7 hPa | 0 mm | - | 650 W/m² | - |
| 1777302728 | 16.67° C | 42% | 1025.8 hPa | 0 mm | - | 642 W/m² | - |
| 1777302426 | 17.22° C | 41% | 1025.8 hPa | 0 mm | - | 637 W/m² | - |
| 1777302123 | 17.22° C | 41% | 1025.7 hPa | 0 mm | - | 629 W/m² | - |
| 1777301821 | 16.67° C | 41% | 1025.7 hPa | 0 mm | - | 624 W/m² | - |
| 1777301519 | 16.67° C | 42% | 1025.7 hPa | 0 mm | - | 616 W/m² | - |
| 1777301215 | 17.22° C | 41% | 1025.7 hPa | 0 mm | - | 610 W/m² | - |
| 1777300911 | 16.67° C | 42% | 1025.8 hPa | 0 mm | - | 601 W/m² | - |
| 1777300610 | 16.11° C | 44% | 1025.6 hPa | 0 mm | - | 594 W/m² | - |
| 1777300307 | 16.11° C | 43% | 1025.9 hPa | 0 mm | - | 584 W/m² | - |
| 1777300004 | 16.67° C | 42% | 1025.8 hPa | 0 mm | - | 578 W/m² | - |
| 1777299700 | 16.11° C | 42% | 1025.8 hPa | 0 mm | - | 570 W/m² | - |
| 1777299398 | 16.67° C | 42% | 1025.6 hPa | 0 mm | - | 560 W/m² | - |
| 1777299096 | 16.11° C | 43% | 1025.8 hPa | 0 mm | - | 550 W/m² | - |
| 1777298793 | 16.11° C | 43% | 1025.7 hPa | 0 mm | - | 540 W/m² | - |
* Rain latest hour (hover to see other rain measurements)
** Current wind speed in m/s (hover to see current wind gust speed)